Weather in Kovrov

Russia / Vladimir Oblast     56°21′49″N   41°18′40″E
temp.,
°C
wind,
m/s
gust,
m/s
humid.,
%
clouds,
%
prec.,
mm/h
press.,
hPa
HPBL,
m
12 may, wed
wed1200:00+12se1195100 0.0 102711
03:00+11s119650 0.0 102711
06:00+13ne139278 0.0 102794
09:00+18ene5871100 0.1 1026559
12:00+23e69505 0.0 10241656
15:00+24e6114780 0.0 10222742
18:00+16ese278765 2.4 1021184
21:00+15ese41383100 2.5 1021650
13 may, thu
thu1300:00+14ese39857 0.0 1021268
03:00+11ese269513 0.0 1021131
06:00+12se259337 0.0 1021199
09:00+17se477568 0.0 1021843
12:00+21se5757100 0.2 10181649
15:00+16sse1491100 9.7 1017236
18:00+15sse299786 4.3 1016406
21:00+13s24971 4.6 101670
14 may, fri
fri1400:00+12sw2295100 0.0 101729
03:00+11sse11959 0.0 101811
06:00+13sse269326 0.0 1018163
09:00+17sse3680100 0.0 1018539
12:00+19sse477587 1.9 1018781
15:00+23sse3752100 2.2 10171903
18:00+21se386454 0.0 1015464
21:00+16se2692100 1.9 1015108
15 may, sat
sat1500:00+16se3894100 3.8 1013168
03:00+15sse3896100 3.8 1013146
06:00+15ssw2896100 0.3 1013221
09:00+20ese2385100 0.4 1012267
12:00+24sse6861100 0.0 10111102
15:00+20ssw51080100 1.7 1011726
18:00+19s51183100 1.7 10111039
21:00+16s41192100 1.8 1011372
16 may, sun
sun1600:00+14s399679 0.0 1011233
03:00+13ssw26974 0.0 1012125
06:00+14ssw27920 0.0 1012199
09:00+19sw46630 0.0 1012899
12:00+22ssw584959 0.0 10122225
15:00+20wsw5106231 0.3 10121361
18:00+20wsw48600 0.0 10131310
21:00+14wsw24870 0.0 101463